DAL080 KSEA-KBOI

Flight info

Callsign DAL080
Flight time N/A
Altitude 41000
Route SUMMA2 SUMMA J54 BKE DEVLE KYAAN4
Aircraft A359/H-SDE2E3GHIJ3J4J5LM1ORWXY/LB1D1

Departure

Time 2026-05-04 06:05
Airport Seattle–Tacoma International Airport (KSEA)

Arrival

Time N/A
Airport Boise Air Terminal/Gowen Field (KBOI)
Time Latitude Longitude Altitude Speed Heading
2026-05-04 05:45 47.43897 -122.30409 397 ft 0 kts 123°
2026-05-04 05:58 47.43898 -122.30411 396 ft 2 kts 123°
2026-05-04 05:58 47.43913 -122.30443 395 ft 4 kts 124°
2026-05-04 05:58 47.43928 -122.30476 398 ft 4 kts 126°
2026-05-04 05:59 47.43944 -122.30508 396 ft 4 kts 126°
2026-05-04 05:59 47.43958 -122.30536 398 ft 4 kts 140°
2026-05-04 05:59 47.43978 -122.30544 396 ft 4 kts 200°
2026-05-04 05:59 47.44003 -122.30529 398 ft 3 kts 197°
2026-05-04 06:00 47.44009 -122.30526 395 ft 0 kts 196°
2026-05-04 06:01 47.44009 -122.30527 395 ft 1 kts 198°
2026-05-04 06:03 47.43647 -122.30625 395 ft 16 kts 165°
2026-05-04 06:03 47.43540 -122.30566 399 ft 16 kts 173°
2026-05-04 06:05 47.43591 -122.30805 399 ft 91 kts
2026-05-04 06:05 47.45583 -122.30769 1142 ft 157 kts
2026-05-04 06:05 47.46703 -122.30796 1686 ft 169 kts 359°
2026-05-04 06:06 47.47964 -122.30847 1891 ft 194 kts 359°
2026-05-04 06:06 47.49402 -122.30884 2130 ft 220 kts 359°
2026-05-04 06:06 47.51017 -122.30912 2391 ft 244 kts 360°
2026-05-04 06:06 47.52773 -122.30898 2849 ft 258 kts
2026-05-04 06:07 47.54478 -122.30171 3504 ft 263 kts 31°
2026-05-04 06:07 47.55692 -122.28170 4180 ft 267 kts 65°
2026-05-04 06:07 47.55953 -122.25448 4870 ft 272 kts 97°
2026-05-04 06:07 47.55539 -122.22706 5549 ft 275 kts 104°
2026-05-04 06:08 47.54961 -122.19986 6192 ft 279 kts 111°
2026-05-04 06:08 47.53956 -122.17518 6832 ft 283 kts 130°
2026-05-04 06:08 47.52378 -122.15772 7463 ft 287 kts 156°
2026-05-04 06:08 47.50438 -122.15059 8105 ft 289 kts 171°
2026-05-04 06:09 47.48428 -122.14663 8713 ft 293 kts 173°
2026-05-04 06:09 47.46395 -122.14299 9325 ft 295 kts 173°
2026-05-04 06:11 47.30455 -122.11369 11622 ft 367 kts 173°
2026-05-04 06:11 47.27914 -122.10900 12053 ft 370 kts 173°
2026-05-04 06:13 47.09606 -122.07530 14937 ft 387 kts 173°
2026-05-04 06:14 46.93334 -122.04553 17193 ft 400 kts 173°
2026-05-04 06:14 46.90565 -122.04048 17545 ft 402 kts 173°
2026-05-04 06:15 46.87780 -122.03541 17897 ft 405 kts 173°
2026-05-04 06:15 46.84976 -122.03031 18247 ft 407 kts 173°
2026-05-04 06:15 46.82157 -122.02519 18587 ft 409 kts 173°
2026-05-04 06:15 46.79325 -122.02005 18922 ft 411 kts 173°
2026-05-04 06:16 46.76482 -122.01490 19256 ft 413 kts 173°
2026-05-04 06:16 46.73621 -122.00972 19571 ft 415 kts 173°
2026-05-04 06:16 46.70753 -122.00454 19892 ft 417 kts 173°
2026-05-04 06:16 46.67866 -121.99921 20202 ft 419 kts 172°
2026-05-04 06:17 46.65027 -121.98967 20496 ft 420 kts 160°
2026-05-04 06:17 46.62411 -121.97076 20783 ft 422 kts 145°
2026-05-04 06:17 46.60198 -121.94285 21088 ft 423 kts 132°
2026-05-04 06:17 46.58382 -121.90922 21376 ft 424 kts 123°
2026-05-04 06:18 46.56843 -121.87319 21656 ft 426 kts 119°
2026-05-04 06:18 46.55414 -121.83549 21926 ft 427 kts 117°
2026-05-04 06:18 46.54015 -121.79729 22187 ft 429 kts 117°
2026-05-04 06:20 46.43581 -121.52969 24040 ft 442 kts 120°
2026-05-04 06:20 46.42029 -121.49110 24293 ft 443 kts 120°
2026-05-04 06:21 46.35767 -121.33563 25313 ft 450 kts 120°
2026-05-04 06:21 46.34182 -121.29636 25568 ft 452 kts 120°
2026-05-04 06:22 46.32591 -121.25701 25833 ft 454 kts 120°
2026-05-04 06:22 46.30996 -121.21762 26075 ft 455 kts 120°
2026-05-04 06:25 46.09529 -120.69285 29346 ft 479 kts 120°
2026-05-04 06:25 46.07844 -120.65208 29586 ft 481 kts 120°
2026-05-04 06:26 46.06128 -120.61062 29830 ft 483 kts 120°
2026-05-04 06:26 46.04400 -120.56895 30089 ft 485 kts 120°
2026-05-04 06:26 46.02668 -120.52721 30347 ft 487 kts 120°
2026-05-04 06:26 46.00928 -120.48536 30598 ft 488 kts 120°
2026-05-04 06:27 45.93880 -120.31649 31600 ft 496 kts 120°
2026-05-04 06:28 45.92097 -120.27392 31822 ft 498 kts 121°
2026-05-04 06:28 45.90307 -120.23126 32038 ft 499 kts 121°
2026-05-04 06:28 45.88507 -120.18844 32246 ft 501 kts 121°
2026-05-04 06:28 45.86702 -120.14554 32449 ft 503 kts 121°
2026-05-04 06:29 45.84889 -120.10254 32653 ft 504 kts 121°
2026-05-04 06:29 45.83071 -120.05947 32849 ft 506 kts 121°
2026-05-04 06:29 45.81268 -120.01684 33027 ft 507 kts 121°
2026-05-04 06:29 45.79434 -119.97352 33220 ft 509 kts 121°
2026-05-04 06:30 45.77591 -119.93007 33388 ft 510 kts 121°
2026-05-04 06:30 45.75744 -119.88658 33607 ft 511 kts 121°
2026-05-04 06:30 45.73899 -119.84322 33899 ft 510 kts 121°
2026-05-04 06:30 45.72068 -119.80025 34181 ft 509 kts 121°
2026-05-04 06:31 45.70213 -119.75687 34328 ft 507 kts 120°
2026-05-04 06:31 45.68383 -119.71414 34649 ft 498 kts 118°
2026-05-04 06:31 45.66592 -119.67234 35423 ft 486 kts 118°
2026-05-04 06:31 45.64836 -119.63142 36044 ft 481 kts 118°
2026-05-04 06:32 45.63091 -119.59071 36468 ft 480 kts 117°
2026-05-04 06:33 45.50882 -119.30764 38892 ft 478 kts 118°
2026-05-04 06:34 45.49134 -119.26737 39101 ft 479 kts 118°
2026-05-04 06:34 45.47377 -119.22696 39335 ft 479 kts 118°
2026-05-04 06:34 45.45617 -119.18655 39556 ft 480 kts 118°
2026-05-04 06:34 45.43856 -119.14615 39735 ft 482 kts 119°
2026-05-04 06:35 45.42082 -119.10549 39907 ft 483 kts 119°
2026-05-04 06:36 45.29578 -118.82079 40944 ft 486 kts 120°
2026-05-04 06:37 45.25981 -118.73944 40937 ft 486 kts 120°
2026-05-04 06:37 45.22376 -118.65815 40939 ft 486 kts 120°
2026-05-04 06:38 45.18792 -118.57753 40950 ft 486 kts 120°
2026-05-04 06:40 45.04355 -118.25507 40949 ft 487 kts 120°
2026-05-04 06:40 45.00713 -118.17432 40953 ft 487 kts 120°
2026-05-04 06:41 44.97070 -118.09376 40942 ft 487 kts 120°
2026-05-04 06:41 44.93443 -118.01380 40940 ft 487 kts 120°
2026-05-04 06:42 44.89763 -117.93288 40941 ft 486 kts 120°
2026-05-04 06:42 44.87940 -117.89287 40737 ft 485 kts 121°
2026-05-04 06:44 44.70013 -117.68178 35852 ft 488 kts 145°
2026-05-04 06:44 44.67148 -117.65614 35071 ft 489 kts 145°
2026-05-04 06:44 44.64271 -117.63042 34193 ft 491 kts 145°
2026-05-04 06:45 44.61380 -117.60461 33231 ft 493 kts 145°
2026-05-04 06:45 44.58482 -117.57877 32265 ft 494 kts 145°
2026-05-04 06:45 44.55572 -117.55286 31308 ft 495 kts 145°
2026-05-04 06:45 44.52655 -117.52690 30296 ft 497 kts 145°
2026-05-04 06:46 44.49726 -117.50087 29155 ft 500 kts 146°
2026-05-04 06:46 44.46802 -117.47494 28453 ft 493 kts 146°
2026-05-04 06:46 44.43924 -117.44944 27765 ft 486 kts 146°
2026-05-04 06:46 44.41081 -117.42428 27075 ft 481 kts 146°
2026-05-04 06:48 44.21960 -117.25527 22170 ft 448 kts 143°
2026-05-04 06:48 44.20346 -117.23755 21723 ft 443 kts 137°
2026-05-04 06:49 44.18085 -117.20877 21030 ft 437 kts 135°
2026-05-04 06:50 44.02995 -117.01089 16164 ft 412 kts 136°
2026-05-04 06:51 44.00913 -116.98379 15471 ft 408 kts 136°
2026-05-04 06:51 43.98853 -116.95699 14790 ft 403 kts 136°
2026-05-04 06:51 43.96895 -116.92937 14120 ft 398 kts 129°
2026-05-04 06:51 43.95286 -116.89898 13446 ft 394 kts 124°
2026-05-04 06:52 43.93776 -116.86777 13034 ft 382 kts 123°
2026-05-04 06:52 43.92340 -116.83787 12883 ft 363 kts 123°
2026-05-04 06:52 43.90971 -116.80950 12781 ft 345 kts 123°
2026-05-04 06:52 43.89663 -116.78247 12667 ft 329 kts 123°
2026-05-04 06:53 43.88415 -116.75675 12540 ft 314 kts 123°
2026-05-04 06:53 43.87223 -116.73222 12417 ft 300 kts 123°
2026-05-04 06:53 43.86074 -116.70860 12281 ft 291 kts 123°
2026-05-04 06:53 43.84952 -116.68556 11990 ft 288 kts 123°
2026-05-04 06:54 43.83830 -116.66254 11624 ft 288 kts 123°
2026-05-04 06:54 43.82713 -116.63965 11288 ft 287 kts 123°
2026-05-04 06:54 43.81588 -116.61686 10963 ft 286 kts 124°
2026-05-04 06:54 43.80465 -116.59423 10637 ft 285 kts 123°
2026-05-04 06:55 43.79341 -116.57160 10313 ft 284 kts 124°
2026-05-04 06:55 43.78222 -116.54909 9978 ft 284 kts 123°
2026-05-04 06:55 43.77106 -116.52663 9650 ft 284 kts 123°
2026-05-04 06:55 43.75966 -116.50371 9323 ft 293 kts 123°
2026-05-04 06:56 43.74816 -116.48060 9111 ft 286 kts 123°
2026-05-04 06:57 43.67779 -116.33962 7934 ft 244 kts 124°
2026-05-04 06:58 43.66773 -116.32059 7893 ft 245 kts 126°
2026-05-04 06:58 43.65755 -116.30179 7874 ft 244 kts 126°
2026-05-04 06:58 43.64741 -116.28305 7851 ft 244 kts 126°
2026-05-04 06:58 43.63729 -116.26428 7811 ft 243 kts 126°
2026-05-04 06:59 43.62721 -116.24555 7754 ft 243 kts 126°
2026-05-04 06:59 43.61713 -116.22681 7706 ft 243 kts 125°
2026-05-04 06:59 43.60705 -116.20805 7662 ft 243 kts 125°
2026-05-04 06:59 43.59695 -116.18929 7637 ft 244 kts 125°
2026-05-04 07:01 43.52609 -116.05781 7383 ft 243 kts 126°
2026-05-04 07:01 43.51598 -116.03912 7371 ft 243 kts 125°
2026-05-04 07:02 43.50602 -116.02068 7333 ft 243 kts 126°
2026-05-04 07:02 43.49592 -116.00199 7282 ft 243 kts 126°
2026-05-04 07:02 43.48582 -115.98332 7245 ft 243 kts 125°
2026-05-04 07:02 43.47501 -115.96558 7197 ft 244 kts 136°
2026-05-04 07:03 43.46003 -115.95512 7161 ft 245 kts 171°
2026-05-04 07:03 43.44345 -115.95806 7132 ft 242 kts 206°
2026-05-04 07:03 43.43103 -115.97304 7098 ft 240 kts 240°
2026-05-04 07:03 43.42662 -115.99460 7062 ft 236 kts 273°
2026-05-04 07:04 43.43124 -116.01579 7033 ft 232 kts 305°
2026-05-04 07:04 43.44313 -116.03021 7026 ft 229 kts 335°
2026-05-04 07:04 43.45868 -116.03405 7011 ft 231 kts
2026-05-04 07:04 43.47363 -116.02622 6950 ft 232 kts 33°
2026-05-04 07:05 43.48786 -116.01781 6792 ft 218 kts
2026-05-04 07:05 43.50161 -116.02340 6684 ft 204 kts 322°
2026-05-04 07:05 43.50822 -116.03955 6561 ft 194 kts 279°
2026-05-04 07:05 43.51056 -116.05718 6361 ft 183 kts 289°
2026-05-04 07:06 43.52029 -116.09023 5237 ft 199 kts 297°
2026-05-04 07:06 43.52622 -116.10816 4577 ft 209 kts 295°
2026-05-04 07:06 43.53229 -116.12587 4144 ft 196 kts 295°
2026-05-04 07:07 43.53777 -116.14194 4033 ft 179 kts 295°